ONEWEB-0080, 45426

Orbit data source: Space-Track

ONEWEB-0080, 45426 is a payload satellite owned by One Web (UK) in LEO that was launched on Sat, 21 Mar 2020 UTC via a SOYUZ-2-1B launch vehicle from the Tyuratam Missile And Space Complex (TTMTR). Payload-class satellites include a variety of spacecraft equipped with specific instruments for various scientific and technological missions. These include communications satellites like Starlink; space stations such as the ISS; scientific satellites like the Hubble; Earth observation satellites from companies like Planet Labs, Umbra, and HawkEye 360; GPS; miniature CubeSats for education and research; and military/defense satellites.

Loading next visibility...
Identifier
45426, 2020-020C
Orbit
LEO
Country
Flag of UKUK
Related business
Manufacturer
One Web
Mission
Operational Commercial Communications
Bus & Motor
ARROW, Unknown motor
Mass
148 kg wet, ~140 kg dry
Launch date (UTC)
2020-03-21 (6 years ago)
Launch vehicle
SOYUZ-2-1B
Launch site
Tyuratam Missile And Space Complex (TTMTR)
Object type
Payload
Rocket body
Debris
Shape & HBR
Trap Box + 2 Pan, 6.7 m
Radar Cross Section
3.464 m², Large (>1 m²)

Expand to show TLE details & history
Last TLE update: 10 hours ago

TLE from 10 hours ago
0 ONEWEB-0080
1 45426U 20020C   26125.22905279 -.00000405  00000-0 -11772-2 0  9998
2 45426  87.8934  29.6060 0001753  68.7397 291.3918 13.11418588297079
Epoch: 2026-05-05T05:29Z
TLE epoch observation values (Epoch: 2026-05-05T05:29:50.161Z)
Latitude
-0°
Longitude
84.0401°
Altitude
1,220.08 km
Speed
7.245 km/s
True Right ascension
01h 58m 25s
True Declination
0° 00' 00"
Sunlit
Object was in daylight at epoch
Visualization orbit readout
Latitude
Unknown
Longitude
Unknown
Altitude
Unknown
Speed
Unknown
Apparent Right ascension
Unknown
Apparent Declination
Unknown
Sunlit
N/A
Visualization observer readout
Local Sidereal Time
23:12:11
Azimuth
Unknown
Elevation
Unknown
Doppler factor
Unknown
Orbital elements
Apogee altitude
1,216.126 km
Perigee altitude
1,213.463 km
Semi-major axis
7,592.932 km
Eccentricity
0.00018
Inclination
87.8934°
RAAN
29.606°
Arg. of periapsis
68.7397°
True anomaly
291.37309°
Mean anomaly
291.3918°
Eccentric anomaly
291.38245°
Mean motion
3.28042 °/min
Orbital period
109.74 mins
BSTAR
-0.0011772
Loading maneuver chart data...
Computing Atmospheric mass density...
Loading historical data...
Loading historical data...
Loading historical data...
Loading historical data...
Loading historical data...
Loading historical data...
Loading historical data...

Documentation

Showing up to 5 results
|